Elko, NV

12:34 AM PDT on July 27, 2017 (GMT -0700)
Elko Regional

Weather History for KEKO - August, 2014

Change the Weather History Date:

Friday, August 8, 2014

  Actual Average Record
Temperature  
Mean Temperature 70 °F 70 °F  
Max Temperature 87 °F 90 °F 104 °F (1981)
Min Temperature 52 °F 50 °F 32 °F (1939)
Degree Days  
Heating Degree Days 0 0  
Month to date heating degree days 1 0  
Since 1 June heating degree days 93 150  
Since 1 July heating degree days 1 19  
Cooling Degree Days 5 5  
Month to date cooling degree days 41 47  
Year to date cooling degree days 417 278  
Since 1 June cooling degree days 414 274  
Growing Degree Days 19 (Base 50)    
Moisture  
Dew Point 46 °F    
Average Humidity 55    
Maximum Humidity 89    
Minimum Humidity 20    
Precipitation  
Precipitation 0.03 in 0.01 in 1.25 in (1899)
Month to date precipitation 0.77 0.10  
Year to date precipitation 7.17 6.01  
Snow  
Snow 0.00 in 0.00 in 0.00 in (1888)
Month to date snowfall 0.0 0.0  
Since 1 June snowfall 0.0 0.0  
Since 1 July snowfall 0.0 0.0  
Snow Depth 0.00 in    
Sea Level Pressure  
Sea Level Pressure 30.00 in    
Wind  
Wind Speed 6 mph (SE)    
Max Wind Speed 35 mph    
Max Gust Speed 52 mph    
Visibility 10 miles    
Events Rain , Thunderstorm    
T = Trace of Precipitation, MM = Missing Value Source: NWS Daily Summary

Daily Weather History Graph

Daily Weather History Graph

Search for Another Location

Airport or City:

Trip Planner

Search our weather history database for the weather conditions in past years. The results will help you decide how hot, cold, wet, or windy it might be!

Date:

Astronomy

Aug. 08, 2014 Rise Set
Actual Time 5:46 AM PDT 7:50 PM PDT
Civil Twilight 5:16 AM PDT 8:20 PM PDT
Nautical Twilight 4:39 AM PDT 8:57 PM PDT
Astronomical Twilight 3:59 AM PDT 9:37 PM PDT
Moon 6:05 PM PDT (8/8) 3:23 AM PDT (8/8)
Length of Visible Light 15h 04m
Length of Day
14h 04m
Waxing Gibbous, 94% of the Moon is Illuminated
Aug 8
Waxing Gibbous
Aug 10
Full
Aug 17
Last Quarter
Aug 25
New
Sep 2
First Quarter

Hourly Weather History & Observations

Time (PDT) Temp. Dew Point Humidity Pressure Visibility Wind Dir Wind Speed Gust Speed Precip Events Conditions
12:56 AM 57.0 °F 51.1 °F 81% 29.99 in 10.0 mi ESE 4.6 mph - N/A   Clear
1:56 AM 55.9 °F 50.0 °F 80% 29.99 in 10.0 mi Calm Calm - N/A   Clear
2:56 AM 55.0 °F 50.0 °F 83% 30.01 in 10.0 mi East 4.6 mph - N/A   Clear
3:56 AM 54.0 °F 48.9 °F 83% 30.02 in 10.0 mi ENE 4.6 mph - N/A   Clear
4:56 AM 53.1 °F 48.9 °F 86% 30.00 in 10.0 mi East 3.5 mph - N/A   Clear
5:56 AM 52.0 °F 48.9 °F 89% 30.02 in 9.0 mi East 3.5 mph - N/A   Clear
6:56 AM 53.1 °F 48.9 °F 86% 30.03 in 10.0 mi ENE 4.6 mph - N/A   Clear
7:56 AM 57.0 °F 50.0 °F 77% 30.04 in 9.0 mi Calm Calm - N/A   Clear
8:56 AM 64.0 °F 52.0 °F 65% 30.02 in 10.0 mi Variable 3.5 mph - N/A   Clear
9:56 AM 71.1 °F 50.0 °F 47% 30.00 in 10.0 mi Calm Calm - N/A   Clear
10:56 AM 75.9 °F 52.0 °F 43% 29.99 in 10.0 mi Variable 3.5 mph - N/A   Clear
11:56 AM 81.0 °F 50.0 °F 34% 29.96 in 10.0 mi West 5.8 mph - N/A   Clear
12:56 PM 84.9 °F 39.0 °F 20% 29.93 in 10.0 mi South 9.2 mph - N/A   Clear
1:56 PM 86.0 °F 41.0 °F 20% 29.91 in 10.0 mi SSW 10.4 mph - N/A   Clear
2:34 PM 84.9 °F 39.9 °F 20% 30.07 in 10.0 mi South 11.5 mph - N/A Thunderstorm Clear
2:56 PM 81.0 °F 43.0 °F 26% 29.92 in 10.0 mi South 13.8 mph 23.0 mph N/A Thunderstorm Scattered Clouds
3:03 PM 82.0 °F 43.0 °F 25% 30.07 in 10.0 mi SSE 10.4 mph 21.9 mph N/A   Scattered Clouds
3:31 PM 86.0 °F 39.9 °F 20% 30.05 in 10.0 mi SSW 9.2 mph - N/A Thunderstorm Clear
3:56 PM 82.0 °F 42.1 °F 24% 29.91 in 10.0 mi West 16.1 mph - N/A   Clear
4:02 PM 81.0 °F 35.1 °F 19% 30.07 in 10.0 mi WNW 20.7 mph 51.8 mph N/A Thunderstorm Unknown
4:23 PM 80.1 °F 41.0 °F 25% 30.06 in 10.0 mi South 6.9 mph - 0.00 in Rain , Thunderstorm Light Rain
4:36 PM 73.9 °F 55.0 °F 52% 30.06 in 9.0 mi SE 10.4 mph 19.6 mph 0.02 in Rain Light Rain
4:45 PM 78.1 °F 48.9 °F 36% 30.06 in 10.0 mi SSE 13.8 mph - 0.02 in Thunderstorm Thunderstorm
4:56 PM 77.0 °F 46.9 °F 34% 29.92 in 10.0 mi East 5.8 mph - 0.02 in   Partly Cloudy
5:18 PM 79.0 °F 46.0 °F 31% 30.06 in 10.0 mi NW 11.5 mph - N/A Thunderstorm Scattered Clouds
5:56 PM 79.0 °F 39.0 °F 24% 29.92 in 7.0 mi Calm Calm - 0.01 in Rain , Thunderstorm Light Rain
6:26 PM 73.9 °F 50.0 °F 43% 30.06 in 10.0 mi South 8.1 mph - 0.00 in   Scattered Clouds
6:56 PM 73.9 °F 45.0 °F 35% 29.94 in 10.0 mi ESE 8.1 mph - 0.00 in   Partly Cloudy
7:56 PM 73.0 °F 46.0 °F 38% 29.96 in 10.0 mi NE 8.1 mph - N/A   Mostly Cloudy
8:56 PM 68.0 °F 48.9 °F 50% 29.99 in 10.0 mi NE 11.5 mph - N/A   Mostly Cloudy
9:56 PM 69.1 °F 46.0 °F 44% 29.97 in 10.0 mi NE 12.7 mph - N/A   Clear
10:56 PM 66.9 °F 46.9 °F 49% 29.96 in 10.0 mi ESE 5.8 mph - N/A   Scattered Clouds
11:56 PM 61.0 °F 50.0 °F 67% 29.96 in 10.0 mi Calm Calm - N/A   Clear